Location: Unspecified
(29.9680°N, 0.0000°E)
Time: 01:09:20
(UTC+00:00)

Explorer 7 - Pass Details

Date: 04 July 2019
Orbit: 485 x 680 km, 50.3° (Epoch: 14 October)

Event Time Altitude Azimuth Distance (km) Brightness Sun altitude
Rises 09:42:33 0° 328° (NNW) 2,824 10.3 57.6°
Reaches altitude 10° 09:45:19 10° 345° (NNW) 1,960 9.6 58.2°
Maximum altitude 09:48:39 20° 33° (NNE) 1,461 9.5 58.9°
Drops below altitude 10° 09:52:05 10° 80° (E) 2,040 10.4 59.7°
Sets 09:55:02 0° 97° (E) 2,978 11.0 60.3°
